This is the latest recevied weather packets stored in our database for station/object KE8WMS. If no packets are shown the sender has not sent any weather packets the latest 10 day(s).
| Time | Temp. | Humidity | Pressure | Rain* | Wind** | Luminosity | Snow |
|---|---|---|---|---|---|---|---|
| 1787811819 | 18.89° C | 94% | 1007.8 hPa | 0 mm | - | 0 W/m² | - |
| 1787811518 | 18.89° C | 94% | 1008 hPa | 0 mm | - | 0 W/m² | - |
| 1787811213 | 19.44° C | 94% | 1008.1 hPa | 0 mm | - | 0 W/m² | - |
| 1787810909 | 19.44° C | 94% | 1008 hPa | 0 mm | - | 0 W/m² | - |
| 1787810604 | 19.44° C | 94% | 1007.8 hPa | 0 mm | - | 0 W/m² | - |
| 1787810303 | 19.44° C | 94% | 1008.2 hPa | 0 mm | - | 0 W/m² | - |
| 1787809998 | 19.44° C | 95% | 1008.1 hPa | 0 mm | - | 0 W/m² | - |
| 1787809693 | 18.89° C | 95% | 1007.8 hPa | 0 mm | - | 0 W/m² | - |
| 1787809389 | 18.89° C | 96% | 1008 hPa | 0 mm | - | 0 W/m² | - |
| 1787809085 | 18.89° C | 96% | 1008 hPa | 0 mm | - | 0 W/m² | - |
| 1787808781 | 18.89° C | 97% | 1008 hPa | 0 mm | - | 0 W/m² | - |
| 1787808480 | 18.89° C | 97% | 1008.3 hPa | 0 mm | - | 0 W/m² | - |
| 1787808180 | 19.44° C | 97% | 1008.4 hPa | 0 mm | - | 0 W/m² | - |
| 1787807878 | 19.44° C | 96% | 1008.2 hPa | 0 mm | - | 0 W/m² | - |
| 1787807574 | 19.44° C | 96% | 1008.2 hPa | 0 mm | - | 0 W/m² | - |
| 1787807269 | 20° C | 95% | 1008.3 hPa | 1.78 mm | - | 0 W/m² | - |
| 1787806964 | 20° C | 94% | 1008.4 hPa | 3.05 mm | - | 0 W/m² | - |
| 1787806662 | 20.56° C | 91% | 1008.4 hPa | 3.05 mm | - | 0 W/m² | - |
| 1787806359 | 21.11° C | 87% | 1008.4 hPa | 1.78 mm | - | 0 W/m² | - |
| 1787806057 | 21.11° C | 84% | 1008.4 hPa | 0 mm | - | 0 W/m² | - |
| 1787805753 | 21.67° C | 82% | 1008.4 hPa | 0 mm | - | 0 W/m² | - |
| 1787805448 | 21.67° C | 80% | 1008.7 hPa | 0 mm | - | 0 W/m² | - |
| 1787805144 | 22.22° C | 79% | 1008.8 hPa | 0 mm | - | 0 W/m² | - |
| 1787804843 | 22.22° C | 76% | 1008.5 hPa | 0 mm | - | 0 W/m² | - |
| 1787804538 | 22.78° C | 75% | 1008.5 hPa | 0 mm | - | 0 W/m² | - |
* Rain latest hour (hover to see other rain measurements)
** Current wind speed in m/s (hover to see current wind gust speed)